This is the latest recevied weather packets stored in our database for station/object RV1CJ-14. If no packets are shown the sender has not sent any weather packets the latest 10 day(s).
| Time | Temp. | Humidity | Pressure | Rain* | Wind** | Luminosity | Snow |
|---|---|---|---|---|---|---|---|
| 1777621204 | 11.11° C | 70% | 1017.5 hPa | 0 mm | - | 134 W/m² | - |
| 1777620603 | 10.56° C | 70% | 1017.4 hPa | 0 mm | - | 218 W/m² | - |
| 1777620003 | 10.56° C | 70% | 1017.4 hPa | 0 mm | - | 178 W/m² | - |
| 1777619403 | 10.56° C | 70% | 1017.5 hPa | 0 mm | - | 221 W/m² | - |
| 1777618803 | 11.11° C | 69% | 1017.4 hPa | 0 mm | - | 216 W/m² | - |
| 1777618203 | 11.11° C | 70% | 1017.3 hPa | 0 mm | - | 327 W/m² | - |
| 1777617603 | 10.56° C | 72% | 1017.4 hPa | 0 mm | - | 267 W/m² | - |
| 1777617004 | 10.56° C | 71% | 1017.4 hPa | 0 mm | - | 283 W/m² | - |
| 1777616403 | 10.56° C | 71% | 1017.4 hPa | 0 mm | - | 262 W/m² | - |
| 1777615803 | 10.56° C | 72% | 1017.2 hPa | 0 mm | - | 190 W/m² | - |
| 1777615203 | 10° C | 74% | 1017.3 hPa | 0 mm | - | 225 W/m² | - |
| 1777614603 | 10° C | 75% | 1017.4 hPa | 0 mm | - | 401 W/m² | - |
| 1777614003 | 9.44° C | 77% | 1017.4 hPa | 0 mm | - | 422 W/m² | - |
| 1777613403 | 8.89° C | 80% | 1017.4 hPa | 0 mm | - | 223 W/m² | - |
| 1777612803 | 8.33° C | 83% | 1017.4 hPa | 0 mm | - | 190 W/m² | - |
| 1777612203 | 7.78° C | 86% | 1017.3 hPa | 0 mm | - | 144 W/m² | - |
| 1777611603 | 7.22° C | 87% | 1017.4 hPa | 0 mm | - | 142 W/m² | - |
| 1777611004 | 7.22° C | 89% | 1017.3 hPa | 0 mm | - | 167 W/m² | - |
| 1777610403 | 6.67° C | 91% | 1017.2 hPa | 0 mm | - | 216 W/m² | - |
| 1777609803 | 6.67° C | 92% | 1017.2 hPa | 0 mm | - | 113 W/m² | - |
| 1777609203 | 6.11° C | 93% | 1017.3 hPa | 0 mm | - | 253 W/m² | - |
| 1777608603 | 5.56° C | 93% | 1017.2 hPa | 0 mm | - | 171 W/m² | - |
| 1777608003 | 5.56° C | 93% | 1017.3 hPa | 0 mm | - | 63 W/m² | - |
| 1777607404 | 5° C | 93% | 1017.2 hPa | 0 mm | - | 174 W/m² | - |
| 1777606803 | 5° C | 93% | 1017.3 hPa | 0 mm | - | 74 W/m² | - |
* Rain latest hour (hover to see other rain measurements)
** Current wind speed in m/s (hover to see current wind gust speed)